This is the latest recevied weather packets stored in our database for station/object N4XWC. If no packets are shown the sender has not sent any weather packets the latest 10 day(s).
| Time | Temp. | Humidity | Pressure | Rain* | Wind** | Luminosity | Snow |
|---|---|---|---|---|---|---|---|
| 1777493535 | 25.56° C | 82% | 1010.9 hPa | 0 mm | - | - | - |
| 1777493325 | 25.56° C | 82% | 1010.9 hPa | 0 mm | - | - | - |
| 1777493025 | 25.56° C | 80% | 1010.9 hPa | 0 mm | - | - | - |
| 1777492934 | 25.56° C | 80% | 1010.9 hPa | 0 mm | - | - | - |
| 1777492724 | 25.56° C | 80% | 1010.8 hPa | 0 mm | - | - | - |
| 1777492425 | 25.56° C | 81% | 1010.8 hPa | 0 mm | - | - | - |
| 1777492335 | 25.56° C | 82% | 1010.8 hPa | 0 mm | - | - | - |
| 1777492126 | 25.56° C | 82% | 1010.8 hPa | 0 mm | - | - | - |
| 1777491825 | 25.56° C | 83% | 1011.2 hPa | 0 mm | - | - | - |
| 1777491736 | 25° C | 85% | 1011.2 hPa | 0 mm | - | - | - |
| 1777491525 | 25° C | 84% | 1011.2 hPa | 0 mm | - | - | - |
| 1777491224 | 25° C | 86% | 1011.2 hPa | 0 mm | - | - | - |
| 1777491134 | 25° C | 86% | 1011.2 hPa | 0 mm | - | - | - |
| 1777490926 | 25° C | 84% | 1011.7 hPa | 0 mm | - | - | - |
| 1777490625 | 25° C | 87% | 1011.7 hPa | 0 mm | - | - | - |
| 1777490535 | 25° C | 87% | 1011.7 hPa | 0 mm | - | - | - |
| 1777490325 | 25° C | 86% | 1011.7 hPa | 0 mm | - | - | - |
| 1777490026 | 25° C | 85% | 1012 hPa | 0 mm | - | - | - |
| 1777489934 | 25° C | 87% | 1012 hPa | 0 mm | - | - | - |
| 1777489724 | 24.44° C | 87% | 1012 hPa | 0 mm | - | - | - |
| 1777489425 | 24.44° C | 86% | 1012 hPa | 0 mm | - | - | - |
| 1777489335 | 24.44° C | 86% | 1012 hPa | 0 mm | - | - | - |
| 1777489125 | 24.44° C | 89% | 1012.2 hPa | 0 mm | - | - | - |
| 1777488824 | 24.44° C | 89% | 1012.2 hPa | 0 mm | - | - | - |
| 1777488734 | 24.44° C | 89% | 1012.2 hPa | 0 mm | - | - | - |
* Rain latest hour (hover to see other rain measurements)
** Current wind speed in m/s (hover to see current wind gust speed)